This is the latest recevied weather packets stored in our database for station/object DL9DCA-13. If no packets are shown the sender has not sent any weather packets the latest 10 day(s).
| Time | Temp. | Humidity | Pressure | Rain* | Wind** | Luminosity | Snow |
|---|---|---|---|---|---|---|---|
| 1777689012 | 20° C | 59% | 1017.3 hPa | - | - | - | - |
| 1777688412 | 20° C | 59% | 1018.3 hPa | - | - | - | - |
| 1777673412 | 20.56° C | 56% | 1019.2 hPa | - | - | - | - |
| 1777671012 | 20.56° C | 57% | 1019.2 hPa | - | - | - | - |
| 1777670412 | 20.56° C | 57% | 1019.2 hPa | - | - | - | - |
| 1777669211 | 20.56° C | 56% | 1018.9 hPa | - | - | - | - |
| 1777666212 | 21.11° C | 55% | 1018.9 hPa | - | - | - | - |
| 1777663812 | 20.56° C | 54% | 1019.8 hPa | - | - | - | - |
| 1777662613 | 21.11° C | 52% | 1019.2 hPa | - | - | - | - |
| 1777660812 | 20.56° C | 52% | 1019.2 hPa | - | - | - | - |
| 1777659011 | 20° C | 52% | 1018.9 hPa | - | - | - | - |
| 1777651812 | 19.44° C | 54% | 1020.1 hPa | - | - | - | - |
| 1777651212 | 18.89° C | 54% | 1020.1 hPa | - | - | - | - |
| 1777650011 | 18.89° C | 53% | 1019.8 hPa | - | - | - | - |
| 1777649411 | 18.89° C | 53% | 1019.8 hPa | - | - | - | - |
| 1777648812 | 18.89° C | 53% | 1019.8 hPa | - | - | - | - |
| 1777648212 | 18.89° C | 53% | 1019.8 hPa | - | - | - | - |
| 1777647012 | 18.89° C | 52% | 1020.8 hPa | - | - | - | - |
| 1777646412 | 18.89° C | 52% | 1020.8 hPa | - | - | - | - |
| 1777645812 | 18.89° C | 52% | 1020.8 hPa | - | - | - | - |
| 1777645212 | 19.44° C | 51% | 1020.8 hPa | - | - | - | - |
| 1777644612 | 18.89° C | 51% | 1020.8 hPa | - | - | - | - |
| 1777643411 | 19.44° C | 51% | 1021.7 hPa | - | - | - | - |
| 1777642812 | 19.44° C | 53% | 1021.7 hPa | - | - | - | - |
| 1777642212 | 19.44° C | 52% | 1020.8 hPa | - | - | - | - |
* Rain since midnight (hover to see other rain measurements)
** Current wind speed in m/s (hover to see current wind gust speed)